GEFSSE_500_meanwind_198.txt.gz
Wind_Speed
5 6 5 5 5 5 5 7 7 7 8 8 9 9 8 8 8 9 9 8 8 7 6 6 6 6 6 6 7 7 7 7 6 7 7 7 8 8 8 8 8 8 8
6 7 6 5 5 5 5 7 7 7 7 8 9 9 8 8 8 8 8 8 7 7 7 7 6 7 6 6 6 6 7 7 6 6 6 7 7 8 8 8 8 8 8
6 6 6 6 5 4 5 7 7 8 8 8 9 8 8 8 7 7 7 7 7 6 6 6 6 6 6 6 6 6 6 6 6 6 6 7 8 7 7 8 7 7 7
6 6 6 5 4 4 5 7 8 8 8 8 8 8 8 7 7 7 7 7 6 6 6 6 5 5 5 5 6 6 5 5 5 6 6 7 8 7 7 7 7 7 7
8 7 6 5 4 5 6 6 6 7 8 7 7 7 7 7 7 7 6 6 6 6 6 6 5 5 5 5 6 5 5 5 5 5 6 7 7 7 7 7 7 6 6
9 8 7 6 5 6 6 6 6 7 7 7 7 7 7 7 7 7 6 6 6 5 5 5 5 5 5 5 5 5 5 5 4 5 6 7 6 7 6 6 6 6 6
9 8 7 7 6 6 6 6 6 6 7 7 6 6 7 7 7 6 6 5 5 5 4 5 5 5 5 5 4 4 4 4 4 5 5 6 6 6 6 6 6 5 5
9 8 7 7 6 6 6 4 4 5 6 6 6 6 7 7 7 6 6 5 5 4 4 4 4 5 5 4 4 4 3 4 4 4 4 5 6 5 5 5 5 5 5
10 8 8 7 6 6 6 5 5 5 5 5 6 6 7 7 7 7 6 5 5 4 4 4 4 4 4 4 4 3 4 3 3 3 3 4 5 5 5 4 4 4 4
11 10 9 8 6 6 6 5 5 5 5 5 5 5 6 7 7 6 6 5 5 4 4 4 4 4 4 4 4 4 3 3 3 3 3 3 4 4 4 4 3 3 3
12 11 9 9 7 6 6 5 5 5 5 5 4 4 5 6 6 5 5 5 5 5 4 5 5 4 4 4 3 3 3 3 3 3 3 3 3 4 3 3 3 3 2
14 13 11 10 8 7 7 6 5 4 4 4 3 4 5 5 5 5 5 5 5 5 5 5 4 4 4 4 4 4 4 3 3 3 3 3 4 4 3 3 3 3 3
14 14 13 11 9 8 8 7 5 5 4 4 3 3 4 4 5 5 5 5 6 6 6 5 4 4 4 4 4 4 4 4 4 4 4 4 4 4 4 4 4 4 4
15 14 13 12 11 9 8 8 7 6 5 3 3 3 3 4 4 5 6 6 6 6 6 5 5 4 4 4 4 4 5 5 5 4 4 4 4 5 5 5 5 5 5
15 14 14 13 12 11 10 8 7 6 5 4 3 3 3 4 5 5 5 6 6 6 6 6 5 5 5 5 5 5 5 5 6 6 5 5 5 6 6 6 6 7 7
16 15 15 14 12 12 10 9 8 7 6 5 3 3 3 3 4 4 5 5 6 5 6 6 5 6 6 5 6 6 6 6 6 6 6 6 6 7 7 7 8 7 7
16 15 15 14 13 12 11 10 9 8 6 5 4 3 3 3 3 4 4 5 6 6 6 6 6 6 6 6 6 6 6 6 6 6 7 7 6 7 7 7 8 8 7
16 15 15 14 14 13 12 11 10 9 8 6 5 3 2 2 2 2 4 5 6 5 5 5 5 5 6 6 6 7 6 6 6 7 7 8 8 8 8 8 8 9 9
15 15 15 14 13 13 12 11 11 10 8 7 6 4 3 2 1 1 3 4 5 5 5 5 5 5 5 6 6 6 7 7 7 7 7 7 8 8 8 9 9 9 10
14 14 14 14 13 12 12 11 11 10 10 8 7 6 4 3 1 0 1 3 4 4 4 4 5 5 6 6 6 7 7 8 8 8 7 8 9 9 9 10 10 10 10
12 12 13 13 12 12 12 12 11 10 10 9 8 7 7 5 4 2 1 0 2 3 4 4 4 5 5 6 7 7 8 8 9 9 9 9 9 10 10 10 11 10 11
10 10 11 12 12 12 12 12 11 11 10 10 9 7 7 6 5 4 3 2 1 1 3 4 4 5 6 7 7 8 8 9 10 10 10 10 10 11 12 12 12 12 12
8 9 9 10 10 10 10 11 11 11 11 10 10 9 7 6 6 4 3 2 2 1 1 2 3 4 5 6 6 7 8 9 9 10 10 10 11 11 12 13 13 13 13
7 7 7 8 8 8 9 9 9 10 10 9 9 8 7 6 6 5 4 3 2 1 1 1 2 3 4 5 6 7 8 8 9 9 10 11 11 11 12 13 13 14 15
7 7 7 7 7 6 7 7 8 8 9 9 9 8 7 6 5 6 5 4 3 2 2 2 2 3 4 5 6 7 7 8 9 9 10 11 11 12 13 14 14 15 16
7 7 6 6 6 6 6 6 7 7 8 9 9 8 7 6 6 6 6 5 4 3 4 4 5 5 5 5 6 7 7 7 8 9 10 11 12 12 13 14 14 15 16

GEFSSE_500_meanwind_204.txt.gz
Wind_Speed
4 3 3 5 5 6 6 6 6 7 7 8 8 8 8 7 7 7 7 7 6 6 6 6 6 6 6 5 5 5 6 6 5 5 6 6 6 8 7 7 7 7 7
4 4 4 5 5 6 7 7 6 6 6 7 7 8 7 7 7 6 6 6 6 6 5 6 5 6 5 4 4 5 5 6 5 5 6 6 7 7 7 7 7 6 6
5 4 5 5 5 6 7 7 6 6 6 6 7 8 8 7 7 6 6 6 6 6 5 5 5 5 5 5 4 5 5 5 5 5 5 6 7 7 7 7 7 6 6
5 5 5 5 5 6 6 6 6 7 7 7 7 7 8 7 7 6 6 6 6 5 5 5 5 5 5 5 5 4 4 4 4 4 5 6 6 7 7 7 6 6 6
5 5 5 5 5 5 6 5 6 8 7 7 7 7 7 7 7 6 6 5 5 5 5 5 5 5 5 5 4 4 4 4 4 4 4 5 6 6 6 6 5 5 5
6 6 6 5 5 5 6 6 6 7 7 6 6 6 6 7 7 6 5 5 5 5 5 5 5 5 4 4 4 3 3 3 3 3 4 5 5 6 5 5 4 4 5
7 6 6 6 6 6 6 6 6 7 7 6 6 6 6 6 6 6 5 5 5 5 5 4 4 4 4 4 3 3 2 3 3 3 3 4 4 5 5 4 3 4 4
7 7 7 6 7 6 6 5 5 6 6 6 6 6 6 6 6 6 5 4 4 5 5 4 4 4 3 3 3 2 2 2 2 2 3 4 4 4 4 3 3 3 3
8 7 7 7 7 6 6 6 6 6 6 7 7 6 6 6 6 5 5 4 4 4 4 4 4 4 3 3 2 2 1 1 1 2 3 3 3 3 4 3 2 3 3
9 8 8 7 7 7 6 5 5 5 6 6 6 6 5 5 5 5 4 4 4 3 3 4 4 4 4 3 2 2 1 2 2 2 3 3 3 4 4 3 3 3 3
11 10 9 9 8 7 6 5 4 5 5 5 5 5 5 5 5 5 5 4 4 3 3 4 4 4 4 3 3 2 2 2 2 2 3 3 4 4 4 4 3 3 3
12 11 10 9 8 7 6 5 5 5 5 4 5 4 5 5 5 5 5 5 4 4 4 3 3 4 4 3 3 3 3 3 3 3 3 3 4 5 5 5 4 5 5
13 12 11 10 8 7 7 7 6 5 4 4 4 4 4 4 5 5 5 5 5 5 4 4 3 3 4 4 3 3 3 4 3 3 3 4 4 5 5 6 5 6 6
14 13 12 11 10 8 8 8 7 6 5 5 4 3 3 4 4 4 4 5 5 5 5 4 4 4 4 4 4 4 5 5 4 4 4 4 5 6 6 7 7 7 7
14 13 12 11 11 10 9 8 7 7 6 5 4 3 3 3 4 4 4 5 5 5 5 4 4 4 4 4 5 5 5 6 5 5 5 5 6 6 7 7 8 8 8
14 14 13 12 11 11 10 8 7 7 6 5 4 4 2 2 3 4 4 5 4 4 5 5 5 5 5 5 5 5 5 6 6 5 5 6 6 6 7 8 8 9 9
14 14 13 12 12 11 10 10 8 7 6 5 4 3 2 2 1 2 3 4 4 4 5 5 6 5 6 6 6 6 6 6 6 6 6 7 7 8 8 8 8 9 10
13 13 13 12 11 11 10 10 9 8 6 5 4 3 3 2 1 1 2 3 4 4 5 6 6 6 6 6 6 6 7 7 7 7 7 7 7 8 9 9 9 9 10
12 12 12 12 11 11 10 10 10 8 7 6 5 4 3 2 2 2 2 2 4 4 5 6 6 6 6 6 7 6 7 8 8 8 8 9 9 9 9 9 9 10 11
11 11 11 11 11 11 11 11 10 9 9 8 6 5 4 3 3 2 2 2 3 4 4 5 6 6 6 7 7 7 8 8 9 9 10 10 9 9 9 10 10 11 12
10 10 9 10 10 10 10 11 10 9 9 9 8 6 5 4 4 3 2 1 2 3 4 5 5 6 6 7 7 8 9 9 10 10 10 10 10 10 11 11 11 12 12
8 8 8 8 8 9 9 9 9 9 9 9 8 7 6 5 4 4 1 1 2 2 3 4 5 5 6 7 7 8 9 9 9 10 11 11 11 11 11 12 12 12 13
7 6 6 7 7 7 7 7 8 8 8 8 7 7 6 6 4 4 3 2 2 3 3 4 5 5 6 7 8 8 9 9 10 10 10 11 11 12 12 12 13 13 13
7 6 6 6 6 6 6 6 6 6 7 7 7 7 7 6 5 4 3 3 3 4 4 4 5 5 6 7 8 8 9 10 10 10 10 11 12 12 13 13 13 13 14
8 7 7 7 7 6 6 5 4 5 6 6 6 6 6 6 6 5 5 4 5 5 5 6 6 6 7 7 7 8 9 9 10 10 11 12 13 13 14 13 14 15 15
9 8 8 7 6 7 7 7 5 5 5 6 6 6 6 6 6 6 6 5 6 6 7 7 8 8 8 8 9 9 9 9 10 10 11 12 13 13 14 14 14 15 15

GEFSSE_500_meanwind_210.txt.gz
Wind_Speed
6 5 5 5 6 7 8 8 8 9 9 10 10 10 10 10 10 11 10 9 9 9 9 9 8 8 8 8 7 7 7 6 6 6 5 5 5 6 6 6 7 6 6
6 6 5 5 7 7 8 8 8 9 10 10 11 11 11 10 10 10 9 9 9 8 8 8 8 8 7 8 7 7 6 6 5 5 5 5 6 6 6 6 7 6 6
7 6 6 6 7 7 7 7 8 9 10 10 11 11 11 10 10 9 9 9 8 8 8 8 7 7 7 7 7 6 6 6 5 5 5 5 6 6 6 6 6 6 6
7 7 7 7 7 7 8 8 9 9 9 9 10 10 11 10 9 9 9 8 8 8 8 7 7 7 7 7 6 6 6 5 5 5 5 5 5 6 6 5 5 5 5
7 7 7 7 6 7 9 9 9 9 9 9 9 10 10 10 10 10 9 8 8 8 7 7 7 7 7 6 6 5 5 5 5 4 5 5 5 5 5 4 4 4 4
7 6 6 6 6 8 8 9 9 9 10 9 10 11 10 10 10 10 9 8 8 8 7 7 7 6 6 6 5 5 5 5 4 4 4 5 5 5 5 4 3 3 3
8 6 6 7 7 6 7 8 9 8 9 9 10 10 10 9 9 9 8 8 7 6 6 6 6 6 6 6 5 5 4 4 4 4 4 4 4 4 4 4 3 3 3
7 6 6 6 5 6 7 7 8 8 8 9 10 9 9 9 9 9 8 8 7 6 6 6 6 5 5 5 4 4 4 3 3 3 3 3 4 4 4 4 3 3 3
8 7 6 5 5 6 6 7 8 8 8 8 8 8 9 9 9 9 8 7 7 7 6 6 6 5 5 4 3 3 3 2 2 3 3 3 3 3 4 4 4 3 3
9 8 7 6 5 4 5 6 7 7 7 7 8 8 8 8 9 8 8 7 6 6 6 6 5 5 4 4 3 2 2 2 2 2 3 3 3 4 4 4 4 4 3
10 9 8 7 6 5 5 5 6 7 7 7 7 7 7 7 7 8 7 7 6 6 5 5 4 4 4 3 3 2 2 1 2 1 2 4 4 4 5 5 4 4 4
10 9 8 7 6 6 5 5 5 6 6 6 7 7 7 6 6 7 7 7 6 6 5 4 4 4 3 3 3 2 2 1 1 2 2 3 5 5 5 5 5 5 5
11 10 9 8 7 6 5 5 5 6 5 6 6 7 7 6 6 7 6 6 6 6 5 4 4 3 3 3 3 3 3 2 2 2 2 3 4 5 6 6 7 6 6
12 10 10 9 8 7 6 5 6 5 5 5 6 6 6 5 6 6 6 6 6 6 5 4 3 3 3 3 3 3 3 3 3 3 3 3 4 5 5 6 6 7 7
13 11 10 9 8 7 6 6 5 5 4 5 5 5 4 4 5 6 6 5 6 6 5 4 4 3 3 3 3 3 4 4 4 4 4 4 5 5 6 6 7 7 8
12 12 11 10 9 8 7 7 5 5 4 4 4 3 3 3 4 4 5 5 5 6 5 5 4 4 4 3 3 4 4 4 5 5 5 5 5 6 6 6 7 7 8
12 11 11 10 10 9 8 7 6 5 5 4 4 3 3 3 3 3 4 5 5 5 5 5 5 5 5 4 4 4 4 5 5 5 5 6 6 6 6 7 7 7 8
11 11 10 10 9 9 9 8 6 5 5 4 4 3 2 2 2 2 4 5 5 5 4 4 4 4 5 5 4 4 4 4 4 5 5 6 7 7 7 7 8 8 8
10 10 10 9 9 9 9 8 7 6 5 4 3 2 2 1 1 1 2 3 4 4 4 3 4 4 4 4 5 5 5 5 5 6 6 7 8 8 8 8 9 9 9
9 9 8 8 8 8 8 8 7 7 6 5 4 2 2 1 1 0 1 3 3 4 4 4 3 3 4 5 6 6 6 6 7 8 8 8 8 9 9 9 9 10 10
7 7 7 7 7 7 7 6 6 6 6 5 4 3 2 2 2 1 0 2 3 3 4 4 4 4 5 6 6 6 6 7 7 8 9 9 9 9 10 10 10 11 11
5 6 5 5 5 6 6 5 5 5 5 4 4 3 3 2 2 2 1 0 1 2 2 3 4 4 5 6 6 6 6 7 7 8 9 10 11 11 11 11 11 11 11
5 6 5 5 5 5 6 5 4 5 5 4 3 3 4 3 3 3 2 1 1 2 2 3 4 5 5 6 7 7 8 8 9 9 9 10 11 11 12 12 12 12 12
7 6 6 6 6 5 5 5 5 5 5 4 4 3 3 4 4 3 3 3 3 4 4 4 4 4 5 6 7 8 8 9 9 9 10 10 11 12 12 12 12 13 13
9 8 8 7 6 6 6 5 5 5 5 5 5 4 4 5 5 5 4 4 5 5 5 5 5 6 6 7 7 8 8 9 9 10 10 11 11 12 12 13 13 13 14
11 11 9 9 8 8 7 6 6 6 6 6 6 6 6 6 6 6 6 6 6 6 6 6 7 7 7 8 8 9 9 10 10 10 10 11 11 11 12 13 14 14 14

GEFSSE_500_meanwind_216.txt.gz
Wind_Speed
2 2 3 4 4 5 5 5 6 7 8 8 9 9 9 9 9 10 10 10 9 9 9 9 8 8 8 8 9 9 8 8 7 7 7 7 7 7 7 8 8 8 8
2 3 3 4 4 4 4 5 6 7 7 8 8 9 9 9 9 9 9 9 9 9 8 8 8 8 8 8 8 8 7 7 6 6 6 7 7 8 8 8 8 8 8
3 3 4 4 4 4 5 5 6 7 7 8 8 8 8 9 10 10 9 9 8 8 8 7 7 7 7 7 7 7 6 6 6 6 6 6 7 7 8 7 7 7 7
3 4 4 4 4 3 4 5 6 7 8 8 8 8 8 8 9 9 9 8 8 8 7 7 7 7 7 6 6 5 5 5 6 6 6 6 7 7 7 7 6 6 6
3 3 4 4 4 4 5 5 6 7 7 7 8 8 8 8 8 8 8 8 8 7 7 7 7 6 6 5 5 5 5 5 5 5 5 5 6 6 6 6 6 6 5
3 3 4 5 4 5 5 5 6 6 7 7 7 7 7 7 7 8 8 8 8 7 7 7 6 6 5 5 4 4 4 4 4 4 4 4 5 5 5 5 5 5 4
5 4 5 4 4 5 4 5 6 6 6 7 6 6 6 6 6 7 7 7 7 7 6 6 6 6 5 4 4 4 4 4 4 4 4 3 4 4 4 4 3 3 3
5 4 4 4 3 4 3 5 5 6 6 7 6 5 5 6 7 6 7 7 7 6 6 5 5 5 5 4 3 3 3 3 3 3 3 3 3 3 3 2 2 2 2
6 5 4 4 3 3 4 5 5 6 6 6 6 5 5 6 6 7 7 7 6 6 5 5 4 4 3 2 2 2 2 3 3 3 3 3 3 3 2 2 1 1 1
8 7 5 4 3 3 4 4 4 5 6 6 6 6 5 5 5 6 6 6 5 5 5 5 4 3 3 2 1 1 2 2 3 2 2 2 2 2 2 2 2 2 1
9 8 7 6 5 4 3 4 4 4 5 5 6 6 5 5 5 6 6 5 5 4 5 4 3 3 2 1 1 1 1 1 2 2 2 2 1 1 2 2 3 3 3
9 9 8 7 6 5 4 3 4 4 4 4 4 5 4 5 5 5 5 5 4 4 4 4 3 3 2 1 1 1 1 1 2 1 2 2 2 2 3 4 4 4 4
11 10 9 8 6 5 4 3 4 3 4 3 2 3 3 4 4 5 5 5 4 4 4 4 3 3 3 2 1 1 1 1 2 2 2 2 2 3 3 4 5 6 6
12 11 11 10 8 7 5 3 3 3 3 2 2 3 3 3 3 4 4 4 5 4 4 4 3 3 3 3 2 2 2 3 3 2 2 2 3 4 4 4 5 6 7
13 12 12 11 10 9 7 5 3 2 2 2 2 2 2 2 3 3 3 4 4 4 4 4 3 3 3 3 3 3 3 3 3 3 3 3 4 4 5 5 6 6 7
13 13 12 11 11 10 9 7 6 4 3 2 1 1 1 0 1 2 3 3 4 4 4 4 4 3 3 3 3 3 3 3 3 3 3 4 4 4 5 5 6 7 7
13 12 12 11 11 11 10 8 7 6 4 3 2 1 1 1 1 1 2 3 4 4 4 4 4 4 3 3 3 4 4 3 4 4 4 4 4 5 5 6 7 7 7
12 12 11 10 10 10 9 8 7 6 5 4 3 2 1 2 1 1 2 3 3 4 4 4 5 5 4 4 5 5 4 4 4 4 5 5 5 5 6 6 7 7 7
12 11 11 10 10 9 9 9 8 7 6 5 4 3 2 2 2 3 2 2 3 3 4 5 5 6 6 6 5 5 6 5 5 6 6 5 5 6 7 7 8 8 8
11 11 10 10 9 9 9 8 7 7 7 7 5 4 3 3 3 4 3 3 3 4 4 5 6 7 6 6 6 7 7 7 7 7 6 6 6 6 7 7 8 8 8
10 10 10 9 9 9 8 8 6 6 6 7 6 4 3 3 3 4 4 4 3 4 5 6 6 6 6 7 7 7 7 8 7 7 8 8 7 7 8 8 8 8 8
9 9 9 8 8 8 8 8 7 6 6 7 6 5 4 4 3 4 5 4 4 4 5 5 5 5 6 6 7 7 8 7 7 8 8 9 9 9 9 9 9 9 9
9 9 9 9 8 8 8 8 7 7 7 7 7 6 6 5 4 4 5 5 5 5 5 6 6 6 6 6 7 8 8 8 9 9 9 9 9 9 10 10 10 10 10
9 9 9 9 9 9 9 9 8 9 8 8 7 7 6 5 6 6 6 6 6 6 6 7 7 7 7 7 8 8 9 9 9 9 9 9 9 9 10 10 11 11 11
10 10 10 10 9 10 10 10 10 10 10 9 8 7 7 6 7 7 7 7 7 8 7 7 7 7 7 8 8 9 9 10 10 9 9 9 9 9 10 10 10 11 11
11 11 11 11 10 11 11 11 12 11 11 10 9 9 8 8 8 9 9 8 9 9 9 8 8 8 8 9 9 9 9 9 10 10 10 11 10 10 10 10 10 10 11

GEFSSE_500_meanwind_222.txt.gz
Wind_Speed
4 5 5 5 6 6 7 7 7 7 8 10 10 10 10 10 11 11 11 11 11 10 10 10 11 10 10 9 9 9 9 9 9 9 9 9 9 9 9 9 10 10 10
5 6 6 6 6 7 8 8 8 8 9 9 9 9 9 10 9 10 11 11 10 10 10 10 10 10 9 9 9 9 9 9 9 9 9 9 9 9 9 10 10 9 10
6 6 7 6 7 7 7 7 8 8 9 8 8 9 9 9 9 11 11 10 10 10 10 9 9 9 9 9 8 8 8 8 8 8 8 9 9 9 9 9 9 9 9
6 6 6 6 7 7 7 7 6 8 8 8 8 8 8 8 9 10 10 10 10 9 9 9 8 8 8 8 7 7 7 7 7 7 8 8 9 9 9 8 8 8 8
6 6 6 6 7 7 6 6 6 7 8 8 7 8 8 8 8 9 8 8 9 9 9 8 7 7 7 7 7 6 6 6 7 7 7 7 8 9 8 8 7 7 7
7 6 6 6 7 7 6 6 7 7 8 8 8 7 7 8 8 8 8 9 9 9 8 8 7 7 7 6 6 5 5 5 6 6 6 7 7 7 7 7 7 6 6
7 7 6 6 6 6 6 7 7 8 8 8 8 7 7 7 7 8 8 8 8 8 7 7 7 6 6 5 5 4 5 5 5 5 5 5 6 6 6 6 6 6 6
8 7 7 7 6 6 7 7 6 7 8 8 7 6 6 6 7 7 7 7 7 6 6 6 6 5 5 4 3 3 4 4 4 4 4 5 5 5 5 5 5 5 5
9 8 7 7 7 7 7 7 6 7 7 8 7 6 6 6 7 7 7 6 6 6 5 5 5 4 4 3 3 3 3 4 4 4 4 4 5 5 4 4 4 4 3
9 8 8 8 7 7 7 6 6 6 6 7 7 6 6 6 6 6 6 6 6 5 5 4 4 3 3 3 2 2 3 3 4 4 4 3 4 5 5 4 4 3 3
10 9 9 8 8 7 7 6 6 6 7 7 7 7 7 6 6 6 6 6 5 5 4 4 3 3 3 2 2 2 2 3 3 4 4 3 3 4 4 4 4 3 2
13 11 9 9 9 8 7 7 6 6 6 7 7 7 6 6 6 6 5 5 5 5 4 3 3 3 2 2 2 2 1 2 2 4 4 3 3 3 4 4 4 3 3
14 13 12 10 9 8 7 7 6 6 7 6 6 6 6 6 6 5 5 5 4 4 3 3 3 3 3 2 1 1 1 2 2 3 3 3 4 4 4 4 4 4 4
14 14 13 11 10 8 7 7 7 7 7 7 6 6 5 5 5 6 5 4 4 3 3 3 3 3 3 3 2 2 2 3 3 3 4 4 4 4 4 4 5 5 6
15 14 13 12 11 9 8 7 7 7 6 6 6 5 5 5 4 5 5 5 4 4 3 3 3 3 3 3 2 2 2 3 3 3 4 4 5 5 5 5 6 6 6
15 14 13 12 11 11 10 8 7 7 7 6 6 5 4 4 4 4 4 4 4 4 4 3 3 3 4 3 3 3 2 3 4 4 4 5 5 5 5 6 6 6 6
15 14 13 12 11 11 10 9 8 8 7 6 5 4 4 3 3 3 3 3 4 4 4 4 3 3 4 3 3 3 3 4 4 5 5 6 5 5 6 6 7 6 6
13 13 13 12 12 11 11 10 9 8 7 5 4 4 4 4 4 3 2 2 3 4 4 4 4 3 4 4 4 3 4 4 5 5 6 6 6 6 6 7 7 7 6
12 12 12 12 12 11 11 10 9 9 7 6 5 4 3 3 3 2 2 1 2 3 3 3 4 4 4 4 4 4 4 5 5 5 6 7 7 7 7 7 7 7 7
10 10 10 10 10 10 10 10 9 8 7 6 5 4 3 2 2 2 1 0 1 2 3 4 4 4 5 5 5 5 5 5 6 6 6 7 7 7 7 8 8 8 8
8 8 8 9 9 9 9 9 8 7 7 6 6 6 4 3 2 2 1 1 1 2 3 4 4 5 5 6 6 6 6 6 6 7 6 7 8 8 8 9 9 9 9
6 6 6 7 8 8 8 8 8 7 6 5 5 4 4 3 3 2 2 2 2 2 2 3 4 4 5 6 6 7 7 7 8 8 8 8 8 9 9 9 10 10 10
4 4 4 5 6 6 6 6 6 6 5 5 5 4 3 2 2 2 2 2 3 3 3 3 3 4 6 6 7 8 8 9 8 9 9 9 9 9 9 9 10 11 11
4 4 3 4 5 5 5 5 5 5 5 4 4 4 4 3 2 2 3 3 4 4 5 5 5 5 6 7 8 9 9 9 9 9 9 9 9 10 10 10 11 12 12
6 6 5 5 5 5 5 4 4 5 5 5 5 5 4 4 4 4 5 5 5 6 6 7 7 7 7 8 8 8 9 9 9 9 9 9 9 10 10 11 12 12 12
8 8 8 7 7 7 6 6 5 5 5 5 5 6 6 6 6 6 6 6 6 7 7 8 8 8 9 9 9 10 10 10 9 9 9 9 9 9 9 10 11 12 13

GEFSSE_500_meanwind_228.txt.gz
Wind_Speed
6 6 6 7 7 8 8 9 9 9 10 10 11 11 10 10 10 10 10 9 9 9 9 9 9 9 9 9 8 8 8 8 8 8 8 8 8 9 8 8 9 9 9
7 7 6 7 8 9 9 9 9 9 10 10 11 11 10 10 10 10 9 10 9 9 8 8 9 9 8 8 8 8 8 8 8 8 8 8 9 9 9 9 9 9 9
7 7 6 7 8 9 9 10 10 10 10 10 10 10 10 10 9 10 10 9 9 8 8 8 8 8 8 7 7 7 7 7 7 7 8 8 8 8 9 8 8 8 8
6 6 7 6 8 9 9 10 10 10 10 10 10 10 10 9 10 10 10 9 8 8 8 7 7 7 7 7 6 6 7 7 7 7 7 7 7 7 7 7 7 7 7
6 7 7 7 8 9 10 10 10 10 10 10 10 9 9 10 10 10 9 8 8 8 7 7 7 6 6 6 6 6 6 6 6 6 6 6 7 7 7 7 6 6 6
7 7 8 8 9 9 10 9 10 10 10 10 9 9 9 9 9 8 8 8 8 7 7 7 6 6 5 5 5 5 5 5 5 5 5 6 6 6 6 6 5 5 5
7 8 8 8 9 10 10 9 9 9 9 9 9 9 8 8 8 7 7 7 7 7 6 6 5 5 4 4 4 4 4 3 4 4 4 5 5 5 5 4 4 3 3
7 8 8 8 8 10 9 9 9 9 9 8 8 9 8 8 7 7 7 7 6 6 6 5 5 4 3 2 3 3 3 3 3 3 3 3 4 4 3 3 3 3 2
8 8 8 8 8 9 8 8 8 8 8 9 8 8 8 8 7 6 6 6 6 5 5 4 4 3 2 2 2 2 2 2 3 3 3 3 3 3 3 3 3 3 2
8 8 8 8 9 8 8 8 7 8 8 8 8 8 8 7 6 6 6 6 5 5 4 4 3 2 2 1 1 1 2 2 2 3 2 2 3 3 3 3 3 3 3
9 9 9 9 9 8 8 7 7 8 8 8 8 7 7 6 6 6 5 5 5 4 4 3 2 2 2 1 1 1 1 2 3 3 3 3 3 4 4 4 4 4 4
10 9 9 9 9 8 7 7 7 7 7 7 7 6 6 6 6 6 5 4 3 3 3 3 2 2 2 2 2 1 1 2 3 3 3 3 3 4 4 4 4 4 4
10 10 9 9 8 8 8 7 6 6 6 7 7 6 6 6 5 5 4 4 3 2 2 2 2 2 2 2 1 2 2 2 2 3 3 3 4 4 4 5 5 5 5
11 10 9 9 9 8 8 7 6 6 7 7 6 6 5 5 4 4 4 4 4 3 3 2 2 2 2 2 2 2 2 2 2 3 3 4 4 4 5 5 5 6 6
11 11 10 9 9 8 7 7 6 6 7 7 6 6 5 4 3 3 4 4 3 3 3 3 3 2 3 3 3 3 3 3 3 3 3 4 5 5 6 7 7 7 7
11 11 10 9 9 8 7 7 6 6 7 6 6 5 4 3 3 3 3 3 3 3 3 4 4 3 3 3 3 3 3 3 4 4 4 5 6 7 7 8 8 8 8
11 11 11 10 9 8 7 7 7 6 6 6 5 5 4 4 4 2 2 2 3 3 4 4 4 4 3 3 3 3 3 4 5 5 6 6 7 8 8 8 8 8 9
10 10 10 10 9 9 8 7 7 7 6 5 5 4 4 3 3 2 1 2 2 3 3 4 3 4 4 4 4 4 4 5 5 5 6 7 7 7 8 8 8 9 9
9 9 9 9 9 9 8 7 6 6 5 5 4 4 3 2 2 0 1 2 2 3 4 4 4 5 5 5 5 5 5 5 5 6 6 7 7 8 8 9 9 9 10
7 7 8 8 8 7 7 6 5 5 5 5 3 3 2 1 0 1 1 2 2 3 4 5 5 5 5 5 5 6 6 6 7 7 7 8 8 9 9 9 10 10 10
5 6 6 7 7 6 6 5 4 4 4 3 2 1 1 1 1 1 2 2 2 3 3 4 5 5 6 6 6 6 7 8 8 9 9 9 9 9 10 10 10 10 11
3 4 5 6 6 5 5 4 4 3 3 3 2 1 1 1 2 2 3 4 4 4 4 5 6 6 6 7 7 7 8 9 9 10 10 10 10 10 11 11 10 10 11
3 3 4 4 4 4 4 4 4 3 3 2 2 2 2 3 3 4 4 5 6 6 6 6 7 7 8 8 8 9 9 9 10 10 11 12 12 12 12 12 11 11 12
2 2 2 2 3 2 2 2 2 3 3 3 3 3 4 4 5 6 6 6 7 7 7 7 7 8 8 8 9 9 9 10 10 10 10 11 11 11 11 11 11 12 13
4 4 3 3 3 3 3 3 3 3 4 4 5 5 6 7 8 8 8 8 8 8 8 9 9 9 9 9 9 10 10 10 10 11 11 11 12 12 12 12 12 13 13
6 6 6 5 6 6 6 6 6 6 6 6 6 7 8 9 10 10 10 10 10 10 10 10 10 10 11 11 11 11 12 12 12 12 12 12 13 13 13 13 13 14 14

GEFSSE_500_meanwind_234.txt.gz
Wind_Speed
7 8 9 9 9 10 11 10 10 12 13 13 12 13 14 13 12 12 11 10 11 11 11 11 10 10 10 10 9 9 8 8 8 8 8 7 8 8 8 8 8 8 8
8 9 9 8 8 9 10 10 11 12 12 12 12 13 13 13 12 12 11 11 11 11 11 10 10 10 10 9 9 9 8 8 8 8 7 7 7 8 8 8 8 8 8
8 8 9 8 9 9 9 11 12 12 12 12 12 13 13 12 11 11 12 12 11 10 10 10 10 10 10 9 8 8 8 7 7 7 7 7 7 8 8 7 8 7 7
7 7 8 8 9 10 11 12 13 12 12 12 12 12 12 12 12 12 12 12 11 10 10 10 9 9 8 8 8 8 7 7 7 7 6 6 7 7 7 7 7 6 6
7 7 9 9 10 10 11 12 12 12 12 12 12 12 12 13 12 12 11 11 10 10 9 9 9 8 7 7 7 7 6 6 6 6 6 6 6 6 6 6 6 6 6
7 7 8 8 8 10 11 12 12 11 12 12 12 13 12 12 12 11 10 10 9 9 8 8 8 8 7 7 6 6 6 5 5 5 5 5 5 5 5 5 5 5 5
8 8 8 8 8 9 10 11 11 11 11 10 11 11 11 11 11 10 9 9 9 8 8 8 7 7 6 6 5 5 5 5 5 5 5 5 5 4 4 4 3 4 4
8 8 7 7 7 9 10 10 10 10 11 11 11 11 11 11 10 9 8 8 8 8 7 7 6 5 5 5 4 4 4 4 4 4 4 4 4 3 3 3 2 2 3
9 8 8 7 8 9 10 9 10 10 11 11 10 10 11 10 10 8 8 8 7 7 7 6 5 5 4 4 3 3 4 4 4 3 3 3 3 3 2 2 2 2 2
9 8 8 7 8 9 9 9 10 10 10 10 10 10 10 10 9 8 7 7 6 6 6 5 5 4 4 4 3 3 3 3 3 3 2 3 3 3 3 3 3 3 3
8 8 7 8 8 8 8 8 9 10 10 10 10 10 9 9 8 7 6 6 5 5 5 5 4 4 4 3 3 2 2 3 3 3 2 2 3 3 4 4 4 4 4
8 7 7 6 7 7 7 7 8 8 9 10 10 9 8 7 7 7 6 6 5 5 4 4 3 3 3 3 3 2 2 3 3 3 3 3 3 4 4 5 5 5 6
7 6 6 7 7 7 7 7 7 8 8 8 8 8 7 6 6 6 6 5 5 4 4 4 4 3 3 3 3 2 2 2 3 3 4 4 4 4 5 5 6 6 6
8 7 7 7 7 7 7 7 7 7 7 8 7 7 6 6 6 5 5 4 4 4 4 4 4 4 3 3 3 3 3 3 3 3 3 4 4 5 5 5 6 7 7
7 7 6 7 6 7 7 6 6 6 7 7 7 7 6 5 5 5 4 4 3 4 4 4 4 4 4 3 3 3 3 4 4 4 4 4 5 5 6 6 6 6 7
6 6 6 6 6 6 6 6 6 6 6 6 6 6 6 5 5 4 4 3 3 3 4 4 4 4 4 4 4 4 4 5 5 6 6 6 6 6 7 7 7 8 8
6 5 4 5 6 6 6 6 6 6 6 5 5 5 5 5 5 5 4 3 2 2 3 4 4 4 5 5 5 5 5 5 5 6 6 6 6 7 7 8 8 8 9
6 5 4 4 5 6 6 6 7 6 6 5 5 4 4 3 4 4 4 3 2 2 3 3 4 5 5 5 6 6 6 6 6 6 6 6 7 7 8 8 8 9 9
5 4 4 4 5 5 5 6 6 6 6 5 4 4 3 3 3 3 3 2 2 2 2 4 4 5 5 5 6 7 7 7 7 7 7 7 8 8 8 8 9 9 10
4 4 4 4 4 5 5 5 5 5 5 4 4 3 2 1 2 2 1 2 2 3 3 3 4 4 4 5 6 6 7 7 8 9 9 9 9 9 9 9 10 10 11
2 3 3 4 4 4 4 4 4 4 4 3 2 1 1 0 0 1 2 2 3 4 3 4 4 4 5 5 6 6 7 7 8 9 9 9 10 10 10 10 11 11 11
0 1 2 3 3 3 3 2 3 3 2 2 1 0 0 1 1 2 3 4 4 5 5 5 5 5 6 6 7 7 8 8 7 8 9 10 11 11 11 12 11 11 11
2 1 1 1 2 2 2 1 1 1 1 0 0 1 1 1 2 4 5 5 5 6 6 6 6 6 7 7 7 8 8 9 9 9 9 10 11 11 12 12 12 11 11
4 4 3 2 2 2 2 1 2 2 2 2 2 2 2 3 4 5 6 6 6 7 7 8 8 8 8 8 8 9 9 10 10 10 10 10 10 10 11 12 12 12 12
7 6 6 5 4 4 4 4 4 4 4 4 4 4 4 4 5 6 7 7 8 9 9 9 10 9 9 9 9 9 10 10 11 11 11 11 12 12 12 13 13 14 14
10 9 8 8 7 7 7 6 6 7 7 7 7 7 7 7 7 7 8 8 9 10 10 10 10 9 9 9 9 10 10 11 12 12 12 12 13 13 14 14 14 14 14

GEFSSE_500_meanwind_240.txt.gz
Wind_Speed
4 4 5 5 6 6 7 8 8 9 10 11 11 11 10 10 10 10 10 9 9 9 9 9 9 9 9 9 8 8 8 8 8 8 8 8 7 7 7 7 7 8 9
3 4 6 6 6 6 7 8 9 10 10 11 11 11 10 10 10 10 10 10 9 9 9 9 9 9 9 8 8 8 7 7 8 8 8 7 8 7 7 7 7 8 9
4 4 5 5 6 7 7 8 8 9 10 11 11 11 10 10 10 10 10 10 9 9 9 9 9 9 9 8 8 8 7 7 7 7 7 7 7 6 7 7 7 8 8
4 4 5 6 6 7 6 7 9 9 10 11 11 10 10 10 9 9 9 9 9 9 8 9 9 9 8 8 8 7 7 7 7 7 6 6 6 6 6 6 6 6 7
3 5 6 6 6 5 6 6 8 8 9 9 9 9 9 9 9 9 9 9 9 8 8 8 8 8 7 7 7 7 6 6 6 6 6 6 5 6 6 6 5 6 6
3 4 6 6 6 6 6 6 7 7 8 8 9 9 9 9 8 9 9 8 7 7 7 7 7 7 6 6 6 6 6 6 5 5 5 5 5 5 5 5 5 4 5
3 4 4 6 6 6 6 6 7 8 7 8 8 8 8 8 8 9 8 7 7 6 6 6 6 6 5 5 5 5 5 4 4 4 4 4 4 5 4 4 4 4 4
5 5 5 6 6 5 5 7 7 8 8 8 8 8 8 8 9 8 7 6 6 6 5 5 5 5 4 4 4 4 4 4 4 4 4 4 4 4 3 3 3 2 2
4 5 5 6 5 5 5 6 7 8 7 7 8 8 9 9 8 7 6 6 5 5 4 4 4 4 3 3 3 3 3 3 3 3 3 2 2 2 2 1 1 1 1
5 5 4 5 5 5 5 6 6 7 7 7 8 8 8 8 7 6 5 5 4 4 3 3 3 3 2 2 2 2 2 2 2 2 2 1 1 1 1 0 1 1 1
5 4 4 4 4 5 4 5 6 6 6 7 7 7 7 6 6 5 5 4 3 3 2 3 3 2 2 1 1 1 1 1 1 1 1 1 1 1 1 2 2 3 3
5 4 3 4 4 4 4 5 6 6 6 6 6 5 5 4 4 4 4 4 3 2 2 2 2 2 2 1 1 1 2 2 2 2 2 2 2 2 2 3 3 4 5
5 4 4 3 3 3 3 4 5 5 6 5 5 4 4 3 3 3 3 3 3 2 2 2 3 2 1 1 1 1 1 3 3 3 3 3 3 3 3 4 4 5 6
6 4 4 3 3 3 4 4 4 5 5 5 5 4 3 3 3 2 2 2 2 1 1 1 2 2 1 1 1 2 2 2 2 3 4 4 3 4 4 4 5 6 6
7 6 3 3 2 3 4 4 4 4 3 4 4 4 4 3 3 2 2 1 1 0 0 1 1 2 2 2 2 2 2 3 3 3 3 3 4 4 5 6 6 7 7
7 6 5 4 4 3 4 4 4 4 4 3 3 3 3 3 2 2 1 1 1 1 1 1 1 1 2 3 3 4 4 4 4 5 5 5 5 5 5 6 7 7 7
7 7 6 5 4 3 3 3 3 3 3 3 2 2 2 1 1 0 1 1 1 1 1 2 2 2 3 3 4 5 5 5 5 5 6 6 6 6 7 7 7 8 8
7 6 6 5 5 4 2 2 2 2 2 3 3 2 2 1 1 0 0 0 0 2 2 3 3 4 5 5 4 5 5 6 6 6 6 6 7 7 8 8 8 8 9
6 5 5 4 4 3 2 2 2 2 2 2 2 2 1 1 1 2 2 1 2 3 3 3 4 5 6 5 5 5 5 6 6 6 6 6 7 8 9 9 9 9 9
6 6 5 4 3 3 2 2 2 2 1 2 2 2 2 1 2 2 2 3 3 4 4 4 4 5 5 6 6 5 5 6 6 6 7 7 8 8 9 9 9 10 10
6 5 5 4 3 2 2 2 1 1 1 1 1 2 2 2 3 3 3 3 4 4 5 5 5 4 5 6 6 5 5 5 6 6 7 7 8 8 8 9 9 10 10
5 4 4 4 3 3 2 1 1 1 1 1 1 1 2 3 3 4 5 5 5 5 5 5 5 5 5 5 5 5 6 6 6 6 7 8 8 8 8 8 9 9 10
5 4 4 4 4 3 2 2 2 2 2 2 2 3 3 3 4 5 6 6 6 7 7 7 6 6 7 7 6 6 6 7 7 7 7 8 8 9 9 8 8 8 10
7 6 5 4 5 4 4 3 4 4 3 3 3 4 5 5 6 6 7 7 7 7 8 8 8 8 8 8 7 7 8 8 8 8 8 8 9 9 10 9 9 9 10
8 7 6 6 6 6 5 5 5 5 5 5 6 6 7 7 7 7 8 8 8 9 9 9 9 9 9 9 9 9 9 9 10 10 10 10 11 11 11 10 10 11 12
9 9 8 8 7 7 7 7 7 7 7 7 7 8 8 9 9 9 10 10 10 10 10 10 10 10 10 11 11 10 11 11 11 12 11 11 11 12 12 12 12 13 14

GEFSSE_500_meanwind_246.txt.gz
Wind_Speed
5 6 7 7 7 8 8 8 8 8 8 8 9 9 9 9 9 10 9 9 9 9 9 9 9 9 9 9 9 9 9 9 8 8 8 9 8 8 8 8 8 9 9
5 5 6 6 7 7 8 8 7 8 8 8 8 8 8 9 9 10 9 9 9 9 9 9 9 9 9 9 9 8 8 8 8 8 8 8 8 9 8 9 9 9 9
6 6 6 6 6 6 7 8 7 8 8 7 7 8 8 8 9 9 8 9 9 9 9 9 8 9 9 9 8 8 8 7 8 8 8 8 8 8 8 9 9 9 8
6 6 6 6 6 6 7 8 8 7 7 7 7 8 7 7 7 8 8 8 8 8 8 8 8 8 8 8 8 7 7 7 7 8 7 7 7 7 8 8 8 8 8
6 6 6 7 6 6 7 8 8 7 7 7 7 8 7 6 6 8 8 8 8 8 7 7 7 7 7 7 6 6 6 6 7 7 7 7 7 7 7 7 7 7 7
7 7 7 6 6 6 6 6 6 7 7 7 8 8 8 7 6 7 8 7 7 7 7 7 7 7 6 6 6 6 6 6 6 6 6 6 6 6 6 6 6 6 6
6 6 6 6 6 6 6 6 6 7 8 7 8 7 8 7 7 7 7 6 6 6 6 6 6 6 5 5 6 6 6 6 5 5 5 5 5 5 5 5 5 5 5
6 6 5 6 6 6 6 6 6 7 8 7 7 8 8 7 6 6 6 6 6 5 5 5 4 4 4 5 5 5 5 5 5 5 5 4 4 4 4 4 4 4 3
6 6 6 6 6 6 6 7 7 8 7 7 7 7 7 6 6 6 5 5 5 4 4 4 4 3 3 4 4 4 4 3 3 3 3 3 3 3 3 3 2 2 2
7 6 5 6 7 6 7 6 7 7 7 8 7 7 7 6 5 5 4 4 4 3 2 2 2 2 2 3 3 3 2 2 2 2 1 1 2 2 2 2 1 1 1
7 7 7 7 7 7 7 6 6 7 7 8 7 7 6 6 5 5 4 3 3 2 2 1 1 1 1 2 2 1 1 1 1 2 2 1 1 1 1 1 1 1 1
8 8 7 7 7 7 7 7 6 6 7 7 7 7 6 6 5 4 4 3 2 2 1 1 1 1 1 1 1 1 1 1 1 1 2 2 2 1 1 1 1 2 2
9 7 7 7 6 6 6 7 7 6 6 6 6 7 6 5 5 4 3 2 3 2 1 1 0 0 1 1 1 1 2 2 1 1 2 2 2 2 2 1 1 2 3
9 9 7 6 6 6 6 7 6 6 5 5 6 6 6 5 4 3 3 3 2 2 1 1 0 0 0 0 1 1 1 2 2 2 3 3 3 3 3 3 3 3 3
10 9 9 7 6 6 6 7 7 6 6 6 6 6 5 4 3 3 3 2 2 2 2 1 0 1 1 1 1 1 2 3 3 3 3 4 5 4 4 4 4 4 4
9 8 8 8 7 6 6 6 7 6 5 5 5 5 4 4 3 2 2 2 2 2 2 1 1 1 1 2 2 3 4 4 5 5 5 4 4 5 5 5 5 5 5
9 8 7 7 6 6 6 6 6 6 5 5 5 5 4 4 3 3 3 3 2 2 1 1 1 1 2 3 3 4 5 6 6 5 5 5 5 5 6 6 5 6 6
8 7 7 7 6 6 5 5 5 5 5 5 5 5 4 4 3 3 3 3 2 1 1 1 2 2 3 3 4 4 5 6 6 5 6 6 6 6 6 6 7 7 7
8 8 7 7 6 5 5 5 5 6 5 5 5 5 5 4 3 3 2 2 1 1 1 2 2 3 3 3 4 5 4 4 5 6 5 5 6 6 6 7 7 8 8
7 7 7 6 6 5 5 5 4 5 5 5 5 5 4 4 4 3 2 1 1 2 2 3 2 3 3 3 3 4 3 3 4 4 5 5 6 6 6 7 7 7 8
6 5 5 5 5 4 4 4 4 4 4 4 3 3 3 3 2 2 2 2 2 2 2 2 2 3 3 3 4 4 3 3 3 3 4 5 6 6 7 7 7 7 8
4 4 4 4 4 4 3 3 3 3 3 3 2 2 2 1 1 1 2 2 2 2 2 3 3 3 3 4 4 4 4 4 4 4 4 5 5 6 7 7 7 7 7
3 4 3 3 2 3 2 2 2 2 2 2 1 1 1 1 1 1 2 3 3 3 3 3 4 4 4 5 5 5 5 5 5 5 5 6 6 7 7 7 7 8 8
3 3 2 1 1 1 1 1 1 1 1 1 1 2 2 3 3 3 4 4 4 4 4 5 5 5 5 5 5 5 6 7 7 7 7 7 7 8 8 8 8 9 10
3 3 2 2 1 1 1 1 1 2 2 2 2 3 3 4 4 4 5 6 6 6 6 6 6 6 6 6 7 7 7 7 8 9 9 9 9 9 10 10 10 11 11
5 4 4 4 3 3 3 3 3 4 4 4 4 4 4 5 5 6 7 7 8 8 8 8 8 8 8 8 8 8 8 9 9 10 10 10 10 11 12 12 12 12 12